Regional Weather Roundup
Issued by NWS Burlington, VT

Home | Current Version | Previous Version | Text Only | Print | Product List | Glossary On
Versions: 1 2 3 4 5 6 7 8 9 10 11 12 13 14 15 16 17 18 19 20 21 22 23 24 25 26 27 28 29 30 31 32 33 34 35 36 37 38 39 40 41 42 43 44 45 46 47 48 49 50
000
ASUS41 KBTV 051630
RWRBTV
VERMONT REGIONAL WEATHER ROUNDUP
NATIONAL WEATHER SERVICE BURLINGTON VT
1200 PM EDT SAT SEP 05 2015

NOTE: "FAIR" INDICATES FEW OR NO CLOUDS BELOW 12,000 FEET WITH NO
SIGNIFICANT WEATHER AND/OR OBSTRUCTIONS TO VISIBILITY.

* THESE REPORTS ARE NOT UNDER NWS QUALITY CONTROL AND/OR DO NOT
  REPORT WEATHER SUCH AS PRECIPITATION AND FOG.

VTZ001>019-051700-
_____VERMONT_____


CITY           SKY/WX    TMP DP  RH WIND       PRES   REMARKS
BURLINGTON     SUNNY     79  60  52 SW9       30.25S
MONTPELIER     SUNNY     74  59  59 E6        30.32S
MORRISVILLE    SUNNY     78  58  49 CALM      30.28F
ST. JOHNSBURY*   N/A     73  57  57 MISG      30.26F
LYNDONVILLE*   FAIR      73  58  59 CALM      30.31S
MIDDLEBURY*    FAIR      79  58  48 S5        30.26S
RUTLAND*       SUNNY     75  46  35 W3        30.26F
SPRINGFIELD    SUNNY     74  58  57 VRB7      30.27F
HIGHGATE*      FAIR      78  62  58 S3        30.24F
NEWPORT*       FAIR      75  58  55 CALM      30.28F
BENNINGTON     SUNNY     77  58  51 VRB3      30.27F
SUTTON*          N/A     72 N/A N/A MISG        N/A
GALLUP MILLS*    N/A     73 N/A N/A MISG        N/A
MT. MANSFIELD*   N/A     64 N/A N/A NW5         N/A

_____LAKE CHAMPLAIN_____


CITY           SKY/WX    TMP DP  RH WIND       PRES   REMARKS
COLCHESTER RF*   N/A     72  63  73 S16         N/A
DIAMOND ISL*     N/A     73  63  68 SW3         N/A

$$

NYZ007-026>031-035-052-083-051700-
_____NORTHERN NEW YORK_____


CITY           SKY/WX    TMP DP  RH WIND       PRES   REMARKS
PLATTSBURGH    SUNNY     75  64  68 SE9       30.24F
SARANAC LAKE   SUNNY     77  59  53 VRB6      30.27S
MASSENA        SUNNY     80  65  59 N3        30.23F
OGDENSBURG*    SUNNY     84  70  61 SW5       30.20F
POTSDAM*       MOSUNNY   81  72  74 CALM      30.22F
STARK FALLS*     N/A     82 N/A N/A SW1         N/A
WATERTOWN      SUNNY     82  67  60 SW8       30.20F HAZE
FT DRUM        MOSUNNY   82  68  61 S5        30.20F
ALBANY         MOSUNNY   76  56  49 S7        30.27F
GLENS FALLS    SUNNY     76  58  53 S6        30.26F

$$
NHZ002-005-011-051700-
_____NEW HAMPSHIRE_____


CITY           SKY/WX    TMP DP  RH WIND       PRES   REMARKS
LEBANON        SUNNY     75  58  55 W7        30.27F
KEENE          SUNNY     73  54  49 S3        30.28F
MT WASHINGTON  MOSUNNY   59  52  77 SE2         N/A
PLYMOUTH       FAIR      76  59  55 CALM      30.26F
WHITEFIELD     SUNNY     76  58  53 NW5       30.29F

$$

_____REGIONAL QUEBEC LOCATIONS_____


CITY           SKY/WX    TMP DP  RH WIND       PRES   REMARKS
MONTREAL       MOSUNNY   75  61  60 CALM      30.24F
QUEBEC CITY    MOSUNNY   73  59  60 SW9       30.24F
SHERBROOKE     SUNNY     75  61  60 VRB2      30.27F

_____REGIONAL ONTARIO LOCATIONS_____


CITY           SKY/WX    TMP DP  RH WIND       PRES   REMARKS
OTTAWA         MOSUNNY   77  64  65 VRB2      30.22F

______KEY______
VSB  - VISIBILITY IN MILES
WCI  - WIND CHILL INDEX
HX   - HEAT INDEX
$$
NNNN


USA.gov is the U.S. government's official web portal to all federal, state and local government web resources and services.